User: anonymous   Login
Location: Unspecified
(0.0000°N, 0.0000°E)
Time: 20:38:40
(UTC+00:00)
Language:

S80/T - Orbit

View from above orbital plane
View from above orbital plane
View from above satellite
View from above satellite

Ground track
Ground track

The orbit data is extracted from the following two-line orbital elements,

1 22078U 92052C   18322.51502661 -.00000043  00000-0  76681-4 0  9999
2 22078  66.0850 308.7213 0006345 187.9439 172.1480 12.86790684234507
Epoch (UTC): 18 November 2018 12:21:38
Eccentricity: 0.0006345
inclination: 66.0850°
perigee height: 1309 km
apogee height: 1319 km
right ascension of ascending node: 308.7213°
argument of perigee: 187.9439°
revolutions per day: 12.86790684
mean anomaly at epoch: 172.1480°
orbit number at epoch: 23450

The dashed part of the orbit path shows where the satellite is in the earth's shadow,  

DLR